{"data":{"norad_id":35942,"epoch":"2026-05-16T11:12:30.210048Z","epoch_age_seconds":826488,"freshness":"AGED","line1":"1 35942U 09054A   26136.46701632 -.00000270  00000+0  00000+0 0  9996","line2":"2 35942   1.7333  83.3796 0004532  37.9482 220.0833  1.00221129 60861","mean_motion":1.00221129,"eccentricity":0.0004532,"inclination_deg":1.7333,"raan_deg":83.3796,"arg_perigee_deg":37.9482,"mean_anomaly_deg":220.0833,"bstar":0,"rev_number":6086,"period_min":1436.8227681809,"perigee_km":35781.68616289,"apogee_km":35819.91715289,"semimajor_km":42178.93865789,"source":"CELESTRAK","updated_at":"2026-05-25T13:38:13.866548Z"}}